| time (UTC) | temp C | wind direction | speed KPH | gust KPH | rain 1hr cm | rain 24hr cm | rain mn cm | humidity % | barometer mb |
| 20260503232106 | 14 | 338 | 1.6 | 3.2 | 0.00 | 0.00 | 0.00 | 71 | 1037.3 |
| 20260503231103 | 14 | 338 | 3.2 | 4.8 | 0.00 | 0.00 | 0.00 | 71 | 1037.3 |
| 20260503230100 | 14 | 338 | 1.6 | 4.8 | 0.00 | 0.00 | 0.00 | 72 | 1037.2 |
| 20260503225055 | 14 | 0.0 | 1.6 | 0.00 | 0.00 | 0.00 | 71 | 1037.2 | |
| 20260503224053 | 14 | 338 | 3.2 | 6.4 | 0.00 | 0.00 | 0.00 | 70 | 1037.2 |
| 20260503223049 | 15 | 356 | 1.6 | 3.2 | 0.00 | 0.00 | 0.00 | 69 | 1037.1 |
| 20260503222045 | 15 | 45 | 0.0 | 3.2 | 0.00 | 0.00 | 0.00 | 70 | 1037.2 |
| 20260503221041 | 14 | 0.0 | 1.6 | 0.00 | 0.00 | 0.00 | 70 | 1037.2 | |
| 20260503220038 | 13 | 45 | 1.6 | 3.2 | 0.00 | 0.00 | 0.00 | 71 | 1037.3 |
| 20260503215035 | 13 | 45 | 1.6 | 3.2 | 0.00 | 0.00 | 0.00 | 71 | 1037.4 |
| 20260503214032 | 13 | 23 | 1.6 | 4.8 | 0.00 | 0.00 | 0.00 | 71 | 1037.4 |
| 20260503213028 | 13 | 26 | 3.2 | 3.2 | 0.00 | 0.00 | 0.00 | 72 | 1037.3 |
| 20260503212024 | 12 | 25 | 1.6 | 6.4 | 0.00 | 0.00 | 0.00 | 73 | 1037.3 |
| 20260503211021 | 12 | 23 | 1.6 | 3.2 | 0.00 | 0.00 | 0.00 | 76 | 1037.3 |
| 20260503210017 | 12 | 23 | 1.6 | 3.2 | 0.00 | 0.00 | 0.00 | 81 | 1037.3 |
| 20260503205116 | 12 | 23 | 3.2 | 6.4 | 0.00 | 0.00 | 0.00 | 87 | 1037.3 |
| 20260503204111 | 11 | 23 | 3.2 | 6.4 | 0.00 | 0.00 | 0.00 | 92 | 1037.4 |
| 20260503203109 | 11 | 23 | 3.2 | 4.8 | 0.00 | 0.00 | 0.00 | 95 | 1037.4 |
| 20260503202105 | 11 | 0.0 | 0.0 | 0.00 | 0.00 | 0.00 | 97 | 1037.2 | |
| 20260503201100 | 11 | 23 | 1.6 | 3.2 | 0.00 | 0.00 | 0.00 | 97 | 1037.1 |
| 20260503200056 | 11 | 0.0 | 0.0 | 0.00 | 0.00 | 0.00 | 98 | 1036.9 | |
| 20260503195053 | 10 | 0.0 | 0.0 | 0.00 | 0.00 | 0.00 | 98 | 1036.9 | |
| 20260503194051 | 10 | 0.0 | 0.0 | 0.00 | 0.00 | 0.00 | 98 | 1036.8 | |
| 20260503193046 | 10 | 0.0 | 0.0 | 0.00 | 0.00 | 0.00 | 98 | 1036.9 | |
| 20260503192124 | 10 | 0.0 | 0.0 | 0.00 | 0.00 | 0.00 | 98 | 1036.7 | |
| 20260503191040 | 10 | 0.0 | 0.0 | 0.00 | 0.00 | 0.00 | 98 | 1036.6 | |
| 20260503190038 | 9 | 0.0 | 0.0 | 0.00 | 0.00 | 0.00 | 98 | 1036.4 | |
| 20260503185034 | 9 | 0.0 | 0.0 | 0.00 | 0.00 | 0.00 | 98 | 1036.3 | |
| 20260503184029 | 9 | 23 | 0.0 | 3.2 | 0.00 | 0.00 | 0.00 | 98 | 1036.2 |
| 20260503183026 | 9 | 0.0 | 0.0 | 0.00 | 0.00 | 0.00 | 99 | 1036.0 | |
| 20260503182106 | 9 | 0.0 | 0.0 | 0.00 | 0.00 | 0.00 | 99 | 1036.0 | |
| 20260503181018 | 9 | 0.0 | 0.0 | 0.00 | 0.00 | 0.00 | 99 | 1035.9 | |
| 20260503180115 | 8 | 0.0 | 3.2 | 0.00 | 0.00 | 0.00 | 99 | 1035.9 | |
| 20260503175112 | 8 | 23 | 0.0 | 3.2 | 0.00 | 0.00 | 0.00 | 98 | 1036.0 |
| 20260503174108 | 8 | 23 | 0.0 | 3.2 | 0.00 | 0.00 | 0.00 | 98 | 1036.0 |
| 20260503173127 | 8 | 0.0 | 0.0 | 0.00 | 0.00 | 0.00 | 98 | 1036.1 | |
| 20260503172121 | 8 | 0.0 | 0.0 | 0.00 | 0.00 | 0.00 | 98 | 1036.1 | |
| 20260503171058 | 8 | 0.0 | 0.0 | 0.00 | 0.00 | 0.00 | 98 | 1036.1 | |
| 20260503170116 | 8 | 0.0 | 0.0 | 0.00 | 0.00 | 0.00 | 98 | 1036.2 | |
| 20260503150114 | 8 | 23 | 0.0 | 3.2 | 0.00 | 0.00 | 0.00 | 95 | 1037.0 |
| 20260503131034 | 10 | 23 | 1.6 | 3.2 | 0.00 | 0.00 | 0.00 | 91 | 1037.5 |
| 20260503120112 | 10 | 23 | 3.2 | 6.4 | 0.00 | 0.00 | 0.00 | 91 | 1037.4 |
| 20260503090108 | 11 | 23 | 6.4 | 8.0 | 0.00 | 0.00 | 0.00 | 90 | 1036.5 |
| 20260503081052 | 10 | 23 | 4.8 | 6.4 | 0.00 | 0.00 | 0.00 | 90 | 1036.4 |
| 20260503072034 | 11 | 23 | 4.8 | 8.0 | 0.00 | 0.00 | 0.00 | 90 | 1036.4 |
| 20260503071030 | 11 | 23 | 6.4 | 8.0 | 0.00 | 0.00 | 0.00 | 89 | 1036.4 |
| 20260503060107 | 11 | 23 | 4.8 | 6.4 | 0.00 | 0.00 | 0.00 | 84 | 1036.1 |
| 20260503055104 | 12 | 23 | 4.8 | 9.7 | 0.00 | 0.00 | 0.00 | 84 | 1036.1 |
| 20260503054059 | 12 | 23 | 4.8 | 8.0 | 0.00 | 0.00 | 0.00 | 84 | 1036.1 |
| 20260503052054 | 12 | 23 | 4.8 | 8.0 | 0.00 | 0.00 | 0.00 | 77 | 1036.0 |
| 20260503051152 | 13 | 135 | 1.6 | 3.2 | 0.00 | 0.00 | 0.00 | 73 | 1036.0 |
| 20260503050048 | 13 | 0.0 | 0.0 | 0.00 | 0.00 | 0.00 | 71 | 1036.0 | |
| 20260503045102 | 14 | 0.0 | 0.0 | 0.00 | 0.00 | 0.00 | 70 | 1036.0 | |
| 20260503044038 | 15 | 0.0 | 1.6 | 0.00 | 0.00 | 0.00 | 68 | 1036.0 | |
| 20260503043035 | 16 | 0.0 | 0.0 | 0.00 | 0.00 | 0.00 | 64 | 1036.0 | |
| 20260503042031 | 17 | 158 | 1.6 | 3.2 | 0.00 | 0.00 | 0.00 | 59 | 1036.0 |
| 20260503041028 | 20 | 158 | 1.6 | 3.2 | 0.00 | 0.00 | 0.00 | 52 | 1036.0 |
| 20260503040026 | 21 | 158 | 0.0 | 1.6 | 0.00 | 0.00 | 0.00 | 53 | 1036.0 |
| 20260503035022 | 21 | 158 | 1.6 | 4.8 | 0.00 | 0.00 | 0.00 | 52 | 1036.2 |
| 20260503034018 | 22 | 90 | 0.0 | 3.2 | 0.00 | 0.00 | 0.00 | 52 | 1036.1 |
| 20260503033115 | 21 | 96 | 1.6 | 3.2 | 0.00 | 0.00 | 0.00 | 52 | 1036.3 |
| 20260503032111 | 20 | 248 | 1.6 | 3.2 | 0.00 | 0.00 | 0.00 | 53 | 1036.3 |
| 20260503031129 | 21 | 255 | 1.6 | 3.2 | 0.00 | 0.00 | 0.00 | 53 | 1036.3 |
| 20260503030106 | 19 | 45 | 1.6 | 3.2 | 0.00 | 0.00 | 0.00 | 57 | 1036.3 |
| 20260503025100 | 18 | 248 | 1.6 | 3.2 | 0.00 | 0.00 | 0.00 | 61 | 1036.4 |
| 20260503024059 | 17 | 248 | 0.0 | 3.2 | 0.00 | 0.00 | 0.00 | 61 | 1036.5 |
| 20260503023055 | 17 | 0.0 | 1.6 | 0.00 | 0.00 | 0.00 | 64 | 1036.5 | |
| 20260503022050 | 17 | 248 | 3.2 | 9.7 | 0.00 | 0.00 | 0.00 | 60 | 1036.6 |
| 20260503021109 | 19 | 258 | 6.4 | 9.7 | 0.00 | 0.00 | 0.00 | 57 | 1036.6 |
| 20260503020104 | 19 | 45 | 3.2 | 6.4 | 0.00 | 0.00 | 0.00 | 60 | 1036.7 |
| 20260503015041 | 18 | 55 | 3.2 | 6.4 | 0.00 | 0.00 | 0.00 | 62 | 1036.8 |
| 20260503014036 | 17 | 45 | 4.8 | 9.7 | 0.00 | 0.00 | 0.00 | 61 | 1036.8 |
| 20260503013034 | 17 | 52 | 1.6 | 3.2 | 0.00 | 0.00 | 0.00 | 63 | 1036.9 |
| 20260503012031 | 18 | 55 | 3.2 | 6.4 | 0.00 | 0.00 | 0.00 | 59 | 1037.0 |
| 20260503011025 | 19 | 60 | 4.8 | 6.4 | 0.00 | 0.00 | 0.00 | 55 | 1037.1 |
| 20260503010106 | 20 | 77 | 1.6 | 3.2 | 0.00 | 0.00 | 0.00 | 57 | 1037.2 |
| 20260503005020 | 18 | 90 | 1.6 | 4.8 | 0.00 | 0.00 | 0.00 | 58 | 1037.4 |
| 20260503004117 | 18 | 99 | 3.2 | 6.4 | 0.00 | 0.00 | 0.00 | 60 | 1037.4 |
| 20260503003132 | 18 | 152 | 3.2 | 6.4 | 0.00 | 0.00 | 0.00 | 57 | 1037.6 |
| 20260503002108 | 19 | 145 | 3.2 | 4.8 | 0.00 | 0.00 | 0.00 | 56 | 1037.7 |
| 20260503001105 | 19 | 127 | 3.2 | 6.4 | 0.00 | 0.00 | 0.00 | 57 | 1037.8 |
| 20260502235058 | 17 | 155 | 3.2 | 6.4 | 0.00 | 0.00 | 0.00 | 58 | 1038.0 |
| 20260502234117 | 18 | 182 | 3.2 | 6.4 | 0.00 | 0.00 | 0.00 | 60 | 1038.0 |
| 20260502233053 | 18 | 62 | 4.8 | 6.4 | 0.00 | 0.00 | 0.00 | 60 | 1038.1 |